GFSCGP_sfc_dewp_003.txt.gz
Dewpoint
26 20 18 18 17 13 14 14 14 17 29 33 33 35 37 41 41 43 43 43 44 46 49 52 56 59 59 58 57 56 54 52 51 49 50 50 50 47 40 39 41 41 42 42
24 21 21 27 25 23 23 23 25 27 30 32 34 35 38 39 40 42 43 43 44 45 48 50 54 58 59 58 57 55 52 48 46 48 50 51 50 44 39 39 41 40 41 40
25 22 27 27 26 27 26 25 25 26 30 30 31 32 37 40 41 42 42 43 44 45 46 49 52 55 55 53 52 51 48 46 46 47 45 43 43 43 40 38 37 38 40 38
28 28 25 25 26 26 26 27 30 29 27 24 26 22 34 38 40 41 41 42 43 41 42 42 44 45 46 43 43 43 42 41 41 43 42 43 39 38 40 38 38 39 41 41
26 27 25 26 26 30 28 31 28 25 24 24 25 25 28 37 39 40 41 41 41 40 38 36 36 37 37 40 42 42 41 40 40 41 41 39 39 39 39 39 41 42 41 41
28 28 27 26 29 29 32 31 31 30 28 25 24 22 25 34 37 39 40 41 40 38 39 39 40 40 39 40 42 42 39 37 38 39 39 40 39 37 37 39 39 39 40 40
26 26 26 30 28 28 30 29 27 25 27 24 27 25 26 30 35 39 39 39 40 41 40 41 40 39 40 41 40 37 36 35 37 38 37 37 37 38 36 36 35 37 35 35
22 23 23 28 27 26 27 28 29 22 25 23 26 25 25 29 33 38 38 39 40 41 42 41 40 38 37 37 37 36 35 33 33 33 31 29 27 24 24 28 29 30 32 34
27 23 25 28 28 27 25 25 28 27 25 25 25 26 28 31 32 36 37 39 39 40 41 40 39 38 36 35 37 35 27 23 24 26 26 28 28 29 29 31 32 31 37 37
30 24 26 26 28 29 27 27 24 26 23 20 21 25 25 31 31 34 36 37 39 39 39 39 38 39 39 38 33 29 23 21 24 26 28 28 29 30 31 32 32 33 37 39
27 30 27 27 26 25 26 25 27 26 25 19 19 20 30 31 33 34 36 37 38 38 38 36 36 38 39 32 26 24 23 23 24 25 28 30 30 32 32 32 32 34 36 37
31 32 29 22 27 30 26 25 25 24 18 24 25 20 30 32 31 35 34 36 37 38 35 34 32 30 27 24 23 24 24 23 23 25 27 29 31 32 31 32 32 34 34 34
33 31 28 24 22 26 26 28 26 27 29 25 32 19 31 33 32 32 34 35 36 35 33 31 24 22 22 23 25 24 24 21 21 21 23 27 30 31 31 32 33 34 34 34
37 29 28 24 22 25 25 28 26 25 26 24 27 22 24 31 32 34 35 35 34 33 32 30 22 20 22 24 24 24 25 25 23 21 23 27 31 32 32 33 34 35 36 36
33 29 28 29 28 26 21 26 26 22 24 26 24 23 23 29 32 34 35 34 33 32 31 29 24 19 21 23 25 23 23 24 25 24 23 27 32 33 32 33 34 35 36 36
33 30 29 30 29 28 26 24 25 27 26 24 25 26 28 33 34 34 34 34 33 32 31 29 25 18 19 22 23 22 22 23 25 25 26 27 32 32 32 33 34 35 35 35
31 31 26 21 25 23 23 25 25 27 27 28 28 28 34 34 34 34 35 34 34 34 32 28 25 20 18 21 23 21 20 22 23 24 25 27 30 31 32 32 31 33 34 34
30 27 25 27 23 21 21 28 26 26 26 27 29 31 33 34 35 35 35 35 35 34 32 29 26 22 17 18 20 21 19 20 21 22 24 27 29 30 31 31 30 33 33 32
30 29 25 28 21 19 17 24 30 30 25 32 30 32 35 35 36 36 36 37 37 36 34 30 26 22 15 14 18 18 18 19 21 23 24 26 28 29 30 30 31 31 29 29
31 30 30 24 24 19 23 22 34 31 27 31 35 35 35 35 37 34 37 37 36 35 32 27 23 12 11 14 17 19 21 23 23 24 25 26 27 30 29 30 30 29 27 21
33 29 28 21 28 25 24 29 32 26 28 35 37 36 36 36 39 36 36 36 36 31 18 19 14 14 16 20 23 23 23 23 23 26 27 28 28 29 30 30 28 25 23 24
30 29 28 23 23 23 27 32 32 36 36 36 38 38 38 38 35 35 34 30 25 18 18 17 19 21 23 24 24 22 22 24 27 28 28 29 30 29 27 28 26 22 23 24
29 31 30 28 30 32 31 37 36 36 35 37 38 38 38 38 35 35 29 22 19 18 18 19 21 23 23 22 23 22 24 28 29 29 29 30 30 29 28 26 24 21 22 23
33 32 32 33 31 31 33 34 35 35 37 37 39 39 39 38 36 31 22 20 19 18 18 20 21 19 21 24 25 26 29 29 29 29 29 30 29 29 26 25 22 22 24 24
34 34 33 32 34 34 34 36 38 38 39 40 40 41 40 39 34 25 22 21 19 24 28 21 21 21 23 25 26 29 29 29 29 29 28 27 29 29 28 24 22 23 22 24
35 34 35 35 34 35 34 33 36 39 40 41 42 39 37 33 27 23 22 26 34 33 23 21 23 24 25 27 28 29 28 30 30 29 28 29 29 29 30 31 26 26 27 25

GFSCGP_sfc_dewp_006.txt.gz
Dewpoint
25 16 14 17 14 12 11 12 9 17 29 29 29 29 32 38 41 43 43 43 43 46 51 53 56 56 56 58 58 57 57 57 55 52 51 48 48 46 43 41 43 43 42 41
20 18 22 25 18 16 14 12 18 24 29 28 29 32 35 36 40 42 43 44 45 48 51 54 56 57 57 57 56 56 55 55 51 49 48 50 50 45 41 42 43 41 41 39
16 24 27 22 21 20 22 18 24 18 27 29 29 30 34 39 40 42 43 44 46 49 51 54 56 57 58 57 57 55 53 49 48 47 46 45 45 44 43 41 39 41 42 40
25 26 24 23 22 25 20 25 24 26 24 18 27 18 33 37 40 41 43 45 47 50 52 54 55 56 57 57 55 51 47 45 44 43 44 45 40 39 40 40 40 40 43 42
26 25 24 23 25 28 26 30 27 25 23 24 24 19 31 37 38 41 43 46 48 50 50 50 50 50 47 48 47 46 43 41 42 43 43 41 41 39 39 39 40 40 39 40
27 28 27 27 29 28 31 29 28 27 25 23 21 21 20 33 35 40 42 43 44 44 43 41 42 41 40 43 45 45 42 40 41 41 42 43 41 36 32 29 27 24 23 24
25 26 27 29 28 31 29 26 22 19 23 22 26 23 20 28 34 40 41 40 42 41 38 37 37 37 40 43 44 42 40 38 40 40 37 34 29 28 24 24 22 24 22 24
18 23 24 28 27 24 28 25 22 16 22 15 26 19 18 29 33 39 40 39 40 39 39 39 38 40 41 42 41 40 39 37 35 31 26 26 26 24 24 27 28 26 27 29
22 21 26 28 28 27 26 26 28 28 29 27 19 24 28 30 31 36 36 37 38 38 40 40 41 41 41 40 42 41 34 28 26 27 27 29 29 30 31 31 31 28 31 30
28 23 26 27 28 29 27 27 26 29 24 19 18 23 20 30 31 34 36 37 37 38 39 42 41 40 40 41 39 36 29 27 26 27 29 29 30 31 31 31 30 31 32 33
27 27 27 29 26 24 26 24 24 26 28 18 13 10 29 29 33 34 36 37 38 39 40 42 40 41 40 38 34 31 28 27 25 26 29 31 31 30 31 30 30 31 33 32
30 31 31 25 28 29 27 24 21 21 18 28 30 13 27 33 33 34 35 37 38 40 41 40 40 41 40 34 30 28 28 26 25 26 28 29 30 30 29 29 29 32 32 33
33 31 28 25 27 27 26 25 22 26 31 24 32 14 27 32 33 33 35 36 38 40 40 38 38 38 34 30 28 28 29 25 22 21 23 27 29 29 29 30 30 31 32 33
36 32 29 27 21 25 27 26 24 21 25 20 24 12 19 25 30 32 34 36 37 39 38 36 34 32 29 27 28 29 29 26 23 20 22 25 29 29 31 31 31 31 32 33
35 31 28 26 27 25 23 23 25 21 22 23 14 16 14 21 25 30 34 36 36 36 35 34 32 30 27 27 29 29 27 26 25 22 22 25 29 31 30 31 30 31 34 33
34 34 31 30 29 26 25 22 24 24 23 23 20 21 22 27 30 33 35 35 35 35 34 34 32 30 27 26 28 27 25 24 25 24 25 26 28 29 31 29 31 31 31 31
36 36 29 24 27 27 32 28 22 23 24 25 24 24 29 30 32 33 34 35 34 34 34 34 34 31 27 25 28 25 23 23 24 23 24 25 27 29 29 28 27 27 29 31
35 32 32 33 29 30 18 25 24 23 23 23 24 26 27 28 33 34 35 35 35 35 35 35 34 32 25 25 26 24 19 20 21 22 22 24 26 26 26 26 27 29 29 29
32 34 33 37 25 22 11 19 22 25 18 25 24 25 29 34 36 36 36 36 37 37 37 37 35 32 28 23 23 20 18 18 19 22 23 20 22 24 24 25 28 29 29 27
31 34 34 31 35 33 22 23 34 31 21 28 31 32 35 36 38 25 37 38 38 38 38 37 34 29 25 22 19 18 16 21 23 22 20 22 23 23 24 26 29 30 29 27
36 37 36 32 36 28 23 28 33 23 24 32 35 35 37 36 35 37 38 38 38 38 37 35 28 23 21 19 18 19 23 23 19 22 24 22 23 24 26 28 29 29 28 26
32 35 36 32 35 31 26 32 32 33 38 36 36 37 39 39 39 38 36 36 37 37 32 27 22 22 20 20 24 22 20 18 23 25 24 25 26 27 27 29 29 29 27 26
32 34 35 31 31 31 32 35 35 37 38 37 38 36 38 38 38 38 35 32 32 29 21 19 21 24 25 24 20 16 18 24 26 27 27 27 29 28 28 29 29 27 26 26
34 33 35 33 29 30 31 32 34 34 36 36 36 37 38 39 39 38 35 29 26 21 19 21 23 20 22 23 22 23 25 27 27 27 27 28 27 28 29 27 27 27 27 27
36 35 34 33 32 32 32 34 35 35 38 39 39 40 41 41 40 38 31 25 22 24 28 29 29 28 23 22 24 25 27 27 26 28 27 27 28 27 27 29 28 27 27 27
35 33 37 36 30 35 33 34 37 39 39 40 41 42 41 40 38 33 26 24 35 33 28 27 24 24 25 25 26 28 28 28 30 29 29 29 30 29 27 28 29 29 27 27

GFSCGP_sfc_dewp_009.txt.gz
Dewpoint
26 21 19 18 17 15 12 6 5 8 12 10 17 17 23 30 31 34 37 41 44 45 48 50 48 50 52 56 56 57 56 57 55 52 50 48 48 46 44 44 45 45 44 42
22 22 22 18 16 12 10 10 12 14 18 24 19 22 25 30 32 35 35 38 40 44 48 49 51 52 54 56 57 56 55 55 51 49 47 49 48 45 42 44 45 43 44 42
20 20 22 18 14 12 12 10 18 17 23 23 20 24 29 31 35 38 39 39 40 45 48 51 53 54 56 56 56 55 54 51 48 49 47 45 45 45 42 41 40 42 44 42
23 24 20 15 13 18 15 20 20 17 22 16 19 17 25 32 33 36 39 41 43 46 49 52 53 54 56 56 56 52 50 48 47 43 44 46 42 40 42 41 41 40 40 39
22 23 18 17 22 24 31 26 23 22 22 19 20 15 35 33 32 34 38 41 44 47 50 51 53 54 53 54 53 50 47 43 43 44 45 43 42 40 39 36 33 31 29 27
23 26 23 24 26 25 28 26 24 21 21 22 16 20 27 29 29 34 39 43 47 49 50 50 50 51 50 50 49 48 43 42 43 44 45 45 40 33 30 28 25 24 24 25
21 21 26 26 24 27 24 24 19 17 21 20 18 19 19 20 29 33 39 43 46 47 46 44 45 42 43 45 46 44 42 41 43 43 38 34 32 30 28 27 26 28 25 26
17 22 23 26 24 20 24 20 21 16 18 12 21 16 13 23 24 30 39 41 44 43 41 40 40 39 41 44 44 42 41 41 39 34 31 31 28 27 27 29 28 26 27 28
19 19 25 26 26 23 21 24 23 24 26 23 15 14 19 28 27 32 39 40 41 40 37 37 37 39 41 43 43 43 41 37 32 32 33 32 31 33 31 30 30 27 29 26
21 20 23 26 28 28 26 24 23 22 18 18 13 15 12 28 28 31 38 38 39 38 36 38 38 41 42 43 42 44 38 31 32 33 33 31 31 32 32 31 29 29 30 30
22 23 27 27 25 19 25 21 22 24 28 23 16 13 22 18 27 31 35 37 38 38 37 39 40 42 42 42 42 39 33 32 33 31 31 33 31 31 31 30 29 29 31 30
24 27 32 25 27 27 27 24 24 26 21 26 29 17 23 27 29 31 33 35 38 37 37 39 42 41 41 42 39 35 33 33 31 30 31 31 32 30 29 29 28 30 30 30
32 27 28 25 27 26 22 23 23 20 30 22 29 18 23 27 29 30 32 35 37 38 38 39 41 41 40 40 37 34 33 31 29 26 27 28 29 30 29 29 30 29 29 30
37 27 27 26 23 24 26 20 21 22 26 24 22 15 15 20 23 25 31 33 35 37 39 40 40 41 41 39 35 32 33 31 27 22 23 25 29 30 30 30 30 29 28 30
35 30 28 26 25 22 20 19 20 18 19 23 19 7 9 13 17 21 26 31 32 36 39 40 40 40 40 37 33 31 33 31 26 23 22 26 29 30 29 30 30 29 30 29
37 33 33 33 27 25 23 20 16 18 19 15 13 14 15 21 22 24 26 30 32 35 37 39 39 38 37 34 32 32 32 29 27 26 26 26 28 27 28 29 30 29 28 27
37 39 33 25 29 28 32 30 23 19 18 19 21 21 25 25 24 26 27 31 32 34 36 37 37 36 35 33 32 32 28 27 26 25 25 25 26 25 28 27 25 25 27 28
40 37 35 31 31 29 18 22 19 22 19 19 19 20 19 23 29 30 31 31 34 34 35 36 37 36 35 34 31 31 26 25 25 23 23 24 24 24 24 24 24 25 28 27
34 37 34 38 25 20 15 15 19 20 17 21 22 19 21 29 33 31 32 34 34 35 35 36 37 37 37 32 29 28 24 22 21 23 23 23 20 20 21 22 23 25 27 27
31 37 34 30 34 31 27 24 30 28 19 24 24 26 25 30 33 27 34 33 33 33 35 36 37 37 36 32 27 27 23 26 25 22 23 19 20 20 20 22 23 25 27 26
37 38 37 33 36 31 23 26 29 22 28 30 31 28 30 31 31 37 38 37 35 35 36 37 38 37 35 30 26 24 29 22 22 22 22 21 20 21 23 25 26 26 27 28
33 36 38 36 35 31 24 29 29 36 34 31 33 33 36 37 37 36 37 36 35 36 37 37 37 33 28 24 25 27 26 25 22 24 23 22 23 24 24 28 28 28 28 29
33 34 36 31 32 32 30 29 30 34 35 34 34 34 35 35 34 36 35 37 34 35 34 31 26 24 27 28 29 28 25 26 25 25 25 25 26 26 26 28 28 29 27 28
33 33 35 33 25 26 28 29 31 32 34 35 35 37 37 38 38 38 38 37 32 30 24 22 25 25 31 35 35 32 25 27 28 28 27 28 28 27 27 27 28 27 28 29
36 34 31 32 29 27 28 30 33 35 37 38 39 40 40 41 39 39 38 31 27 22 24 28 35 35 32 28 24 28 29 28 28 29 29 28 31 30 28 27 28 32 29 27
34 28 37 35 33 36 33 37 40 40 41 42 41 40 38 38 38 36 29 28 32 32 32 33 33 32 28 27 27 28 30 30 30 30 30 31 31 31 29 28 28 31 31 30

GFSCGP_sfc_dewp_012.txt.gz
Dewpoint
27 24 23 22 24 22 18 15 12 12 8 6 17 19 22 26 38 39 41 41 43 44 46 46 47 51 55 57 56 58 58 59 59 55 52 52 51 51 49 48 49 48 48 47
22 23 23 24 21 20 17 15 10 10 11 12 12 17 20 25 27 33 37 41 42 44 45 48 49 50 55 56 57 57 57 57 57 53 54 54 50 49 48 49 48 48 48 46
29 28 22 21 21 19 15 15 17 13 10 12 28 21 19 23 27 29 32 35 40 43 47 49 49 53 57 57 57 57 57 56 53 53 50 50 49 50 48 47 47 47 46 43
33 31 22 20 16 14 22 26 19 21 26 14 27 23 36 34 25 30 34 37 38 41 47 49 52 53 58 59 58 56 55 51 51 50 50 50 46 44 46 46 43 40 40 36
23 22 21 19 21 23 25 28 24 19 19 24 27 23 32 35 31 31 35 39 41 45 47 50 52 56 57 58 57 56 51 47 48 49 49 48 46 46 42 39 37 36 35 35
28 28 24 26 23 23 27 24 25 18 19 29 26 28 30 33 32 35 34 38 42 45 49 50 54 55 54 56 55 52 46 45 48 48 48 46 42 38 37 33 33 34 34 34
22 20 22 23 17 22 21 22 20 21 24 25 17 24 30 35 36 45 46 38 43 48 49 50 53 53 52 52 51 48 44 44 47 46 42 41 39 37 36 34 34 33 33 33
19 18 20 20 18 26 23 16 24 27 28 24 22 20 16 30 37 44 43 42 46 48 50 49 49 50 49 48 48 45 43 43 44 40 37 38 37 35 35 36 33 34 33 34
31 25 25 22 20 21 14 19 21 22 34 27 18 12 10 24 23 26 38 41 45 46 46 46 46 44 45 46 47 46 43 42 38 37 39 39 38 38 38 36 34 34 33 29
39 33 32 24 25 24 24 21 24 26 24 20 13 16 20 25 26 27 37 40 42 44 42 42 42 42 44 46 45 48 44 40 35 38 40 37 38 39 38 36 33 32 33 33
24 32 25 26 23 16 23 21 21 19 30 32 28 17 21 21 25 30 33 41 41 43 41 39 38 41 43 45 45 45 43 36 35 37 38 39 37 38 37 34 33 32 33 33
23 26 36 24 23 22 24 26 21 35 26 35 36 23 23 26 25 31 32 37 40 41 40 38 39 41 43 44 43 44 41 35 36 37 36 37 38 37 35 34 32 33 32 33
27 27 32 24 26 26 23 19 22 25 37 32 34 26 22 23 23 26 31 33 38 40 40 39 40 42 43 43 44 43 40 35 35 33 33 34 36 39 34 33 33 32 32 32
40 28 26 30 24 25 27 21 17 21 35 33 28 17 16 21 24 25 30 32 34 39 39 38 39 42 42 42 43 41 39 39 35 33 30 32 36 36 34 33 33 33 32 32
34 30 26 22 22 25 24 20 20 17 22 24 25 16 15 16 20 24 28 30 30 30 37 38 40 42 42 42 43 40 38 39 37 34 28 33 35 34 33 34 34 34 33 32
37 36 37 36 28 26 25 24 21 18 17 18 16 17 15 24 24 24 24 25 30 29 29 37 41 43 43 42 42 38 36 37 35 33 33 33 32 32 33 33 35 35 34 32
39 44 39 34 30 31 30 33 26 24 19 19 22 23 21 21 23 28 29 28 30 32 33 36 40 42 42 42 42 38 36 36 33 31 30 31 33 32 33 32 31 31 31 32
43 42 41 38 33 29 22 21 20 21 20 19 17 19 19 28 28 26 27 30 32 35 35 37 39 41 41 40 39 37 35 33 31 29 29 31 33 33 30 30 28 30 31 31
38 42 39 37 31 24 21 17 18 19 20 23 23 23 25 27 29 27 34 35 36 36 36 37 37 40 41 39 38 34 33 29 28 28 29 31 32 25 26 27 29 29 30 30
32 43 43 35 35 31 31 25 28 25 25 25 26 28 27 28 40 34 38 39 37 34 33 34 37 38 39 40 37 33 31 28 30 33 30 27 29 25 25 28 29 31 31 30
39 41 37 36 37 36 25 26 26 28 33 33 33 32 34 35 38 38 39 40 37 36 36 38 39 39 38 37 34 30 29 30 28 29 34 35 29 27 28 29 30 30 30 31
37 39 38 41 35 32 26 26 32 40 41 35 35 36 39 38 38 37 36 36 36 35 35 37 31 28 28 30 29 28 31 32 31 35 36 30 29 28 26 31 30 31 31 31
36 38 41 36 38 38 30 33 34 36 38 36 37 35 38 37 38 38 38 38 36 33 29 26 28 28 30 32 32 30 34 36 37 35 30 31 31 29 28 29 29 30 30 32
34 34 40 39 26 27 30 29 32 31 35 35 36 38 40 40 41 39 39 35 26 23 24 25 29 35 36 37 36 35 35 31 31 32 32 32 32 30 30 29 29 29 32 32
38 34 32 32 32 30 27 35 36 37 39 41 42 41 39 39 39 39 31 26 26 31 33 34 33 32 31 31 32 32 32 31 31 32 32 32 32 32 31 30 29 31 30 30
35 33 42 41 37 39 37 40 41 41 39 37 37 34 33 33 31 33 32 32 33 33 34 34 34 33 32 31 30 30 30 31 32 32 32 33 33 33 31 31 30 30 31 32

GFSCGP_sfc_dewp_015.txt.gz
Dewpoint
30 25 25 24 26 23 21 18 21 20 20 14 17 22 32 39 42 39 46 52 49 41 43 44 50 52 55 57 58 58 58 56 58 54 52 51 49 46 46 46 45 46 46 46
28 24 25 27 25 24 23 22 19 16 10 8 19 21 24 40 41 39 48 50 51 45 44 43 48 53 54 56 57 57 57 57 58 52 50 50 46 45 45 46 46 45 44 43
28 27 31 26 24 23 23 24 21 18 15 17 23 25 30 32 36 43 46 48 46 44 44 46 48 54 54 55 56 56 56 55 55 51 48 46 46 46 46 45 45 43 37 30
29 28 27 27 24 21 24 26 28 23 23 18 20 23 34 30 29 32 37 41 43 44 47 48 50 53 55 57 56 57 55 50 50 47 45 43 44 42 43 41 35 31 32 31
27 31 30 27 24 24 23 26 29 30 23 28 24 25 31 32 28 32 34 37 39 46 48 49 51 56 56 58 59 56 48 46 47 46 45 44 43 38 35 33 31 29 32 32
26 27 29 28 25 24 29 28 27 28 25 26 27 26 31 32 31 33 38 36 41 46 48 51 54 56 57 58 54 47 44 45 46 46 43 39 34 32 30 30 31 30 32 33
26 23 31 32 26 29 31 28 24 22 26 25 30 29 27 34 32 34 37 36 41 46 50 53 54 53 54 52 48 43 44 45 43 38 35 34 32 30 28 30 31 30 30 31
25 25 26 26 21 25 27 24 27 21 26 28 31 26 25 28 34 37 37 38 41 47 49 53 53 53 51 47 43 42 44 44 40 36 34 32 32 33 32 32 31 32 31 31
29 29 33 31 30 27 25 25 27 32 34 32 29 25 26 33 35 40 39 40 44 48 50 53 52 50 47 45 44 43 43 42 37 35 35 33 33 34 34 32 32 32 32 28
38 31 35 34 34 26 26 26 24 30 24 20 16 20 24 29 30 38 41 40 46 48 48 49 47 46 46 45 45 43 42 38 35 36 36 34 35 35 34 33 31 31 32 30
37 35 35 35 30 23 25 23 22 25 28 22 24 22 22 24 28 35 40 43 45 45 44 44 43 44 44 45 45 44 42 35 35 37 35 36 35 36 34 33 32 31 31 31
37 36 32 32 28 25 23 26 28 25 19 29 27 24 24 21 24 27 32 41 43 44 42 40 40 42 43 44 44 43 40 34 36 36 36 36 36 35 34 34 32 32 30 31
34 26 25 24 29 30 24 23 22 32 31 25 22 23 23 22 22 25 26 31 41 42 41 39 38 41 43 43 43 43 39 34 36 34 35 37 37 36 34 33 32 32 31 30
38 31 26 24 26 29 28 25 23 26 26 25 26 24 20 22 22 25 26 26 34 41 40 38 37 40 43 43 43 43 39 36 35 34 34 37 38 36 35 33 32 32 31 30
35 28 29 29 32 28 28 27 26 19 26 24 24 25 24 23 24 25 29 29 29 29 34 38 39 42 42 43 43 42 43 38 37 33 31 34 37 36 33 33 32 32 33 30
36 33 33 32 32 31 28 28 27 27 25 23 21 21 22 25 23 24 25 25 28 29 30 34 42 43 42 44 44 43 41 39 34 31 32 34 35 34 34 33 33 33 34 32
36 34 30 28 29 27 22 26 27 27 27 26 20 21 25 28 28 25 26 28 30 30 33 35 39 43 43 44 44 41 38 37 33 33 33 34 33 33 34 34 33 32 33 32
36 34 31 27 26 14 25 27 22 26 25 24 25 27 27 26 29 35 34 33 33 34 34 35 36 39 42 43 42 39 36 34 32 31 31 33 34 34 34 34 32 30 30 30
43 35 31 24 26 26 23 24 27 24 24 27 27 27 28 29 30 37 38 37 36 35 34 33 35 37 39 39 40 36 33 31 30 31 32 35 34 33 34 32 32 32 31 30
35 36 29 28 24 17 28 29 29 27 25 32 31 31 32 31 29 35 37 37 37 35 36 35 32 32 37 38 35 32 29 30 32 32 35 34 33 33 30 32 32 32 30 29
30 30 26 25 23 28 34 28 30 20 26 34 32 34 34 34 37 37 38 37 36 33 29 29 31 32 32 31 30 30 31 34 35 36 35 35 36 34 32 31 31 30 30 30
30 30 28 32 29 25 31 28 23 36 35 34 33 34 34 35 38 39 39 37 30 28 28 30 32 32 32 33 33 34 35 35 35 35 35 36 35 32 30 30 30 30 30 30
32 36 32 33 32 37 30 30 36 34 32 33 34 38 39 40 41 39 26 25 26 27 31 34 34 36 36 35 35 35 34 34 36 37 37 34 33 32 30 30 29 29 29 28
35 36 34 31 30 31 29 30 34 38 39 42 41 40 41 40 37 27 26 29 30 33 34 35 34 32 32 33 34 35 35 34 34 33 33 33 33 32 31 30 30 29 28 27
37 34 33 32 32 38 41 41 42 40 41 36 35 35 35 32 29 30 32 32 32 32 32 32 32 32 32 33 33 33 33 32 31 31 32 32 31 32 31 31 30 29 29 29
36 34 32 30 39 40 39 39 38 37 36 36 36 35 35 34 34 34 34 34 34 35 35 34 33 32 32 32 31 30 30 31 31 31 31 30 30 30 31 30 30 31 31 30

GFSCGP_sfc_dewp_018.txt.gz
Dewpoint
31 24 24 24 26 26 23 21 21 22 23 20 22 33 39 40 42 44 47 46 46 47 49 53 54 53 53 55 58 57 54 56 56 53 50 49 47 46 46 44 45 46 45 44
26 24 25 27 27 26 25 21 21 23 21 15 22 34 37 40 40 43 46 47 44 46 46 52 52 53 53 56 58 56 54 56 55 51 50 48 45 45 45 45 45 44 44 43
25 23 29 28 25 25 23 24 25 21 14 22 23 25 32 38 41 42 44 44 43 45 43 49 52 52 54 57 57 56 55 55 56 52 49 46 46 46 45 44 44 36 32 31
27 29 25 28 27 26 22 23 27 26 20 16 20 21 29 31 32 41 41 45 42 47 43 46 51 52 54 57 57 57 56 56 56 51 48 44 42 42 44 42 34 30 32 34
26 29 28 27 26 27 25 28 26 29 25 23 25 24 25 34 25 37 41 44 44 46 43 44 52 52 54 57 57 56 56 55 52 48 48 44 44 42 38 34 30 31 33 35
25 28 28 26 27 27 28 26 29 28 27 24 28 23 24 31 28 26 35 43 44 44 46 50 53 53 54 57 58 57 49 48 47 46 45 44 38 34 31 30 30 31 33 35
26 23 30 32 26 29 28 27 23 19 23 22 30 26 25 28 33 33 34 36 41 43 49 52 54 54 56 57 52 47 45 46 47 43 41 36 32 30 29 29 31 31 31 32
23 23 29 31 27 24 26 24 23 18 23 22 31 27 28 31 31 34 33 37 44 48 50 52 54 55 55 53 47 45 45 42 41 40 39 37 31 31 32 32 32 32 32 31
27 26 34 31 34 31 24 22 27 30 32 28 28 27 21 34 35 36 37 38 43 48 52 53 53 54 52 47 44 47 45 39 39 40 39 38 34 34 34 32 32 32 32 31
31 27 35 33 32 32 27 25 23 29 23 23 20 22 23 30 33 35 39 38 40 48 51 53 52 50 49 44 43 44 43 39 42 42 39 39 36 35 34 33 32 33 33 32
36 29 31 34 30 26 28 24 23 27 27 21 22 22 21 26 31 32 38 40 41 48 50 51 50 48 46 43 42 43 41 39 40 42 39 36 34 35 33 32 33 33 32 32
36 34 30 30 32 26 30 25 24 24 18 27 26 23 27 23 26 34 38 40 44 47 49 49 49 47 45 44 43 43 41 40 38 34 34 35 37 36 34 33 33 34 32 32
35 30 25 26 27 30 25 23 27 30 28 24 22 23 24 23 21 24 31 40 44 46 45 45 46 46 45 45 44 42 41 36 34 34 37 36 37 36 33 33 33 33 32 32
37 29 24 23 24 29 27 27 25 28 26 24 25 23 23 21 22 22 26 32 41 43 43 41 43 45 45 45 45 43 40 38 37 34 35 36 36 34 35 33 33 32 32 30
34 27 28 27 31 30 28 27 27 23 24 23 23 24 22 22 23 24 26 27 34 40 40 39 40 39 42 43 44 44 40 39 37 36 36 37 36 36 36 34 32 32 32 31
35 28 32 29 31 30 27 27 27 27 26 25 23 22 25 25 27 28 28 28 28 29 32 36 38 41 42 43 43 44 41 40 37 36 35 36 38 35 35 34 33 32 33 33
34 32 29 26 28 26 25 25 25 26 26 27 23 24 28 29 32 30 29 32 32 34 35 37 42 42 43 44 44 44 43 40 36 34 34 37 35 34 35 33 32 33 34 34
34 32 29 26 24 18 28 28 27 26 25 27 26 26 31 33 35 35 34 33 33 34 34 35 35 42 43 44 44 44 40 36 34 34 34 34 35 34 34 34 34 35 34 31
42 33 30 23 24 25 25 23 21 23 26 29 27 28 30 35 35 35 38 36 36 36 36 33 33 34 39 42 41 36 33 31 32 33 35 34 35 33 34 34 35 34 33 32
37 36 31 28 22 17 26 29 29 27 25 31 32 32 31 30 30 34 37 37 34 29 31 32 32 31 31 33 33 31 32 33 34 34 33 34 34 34 35 36 36 35 31 30
29 29 24 22 20 24 29 30 27 16 21 33 34 34 33 33 35 37 35 30 29 31 32 32 32 32 31 32 34 34 34 34 35 36 36 37 37 38 38 36 33 31 30 30
28 28 25 30 24 20 34 27 23 28 35 34 33 34 38 40 36 31 29 29 29 32 33 34 33 33 34 34 34 33 34 35 36 36 38 39 38 37 33 30 30 29 29 29
27 31 29 30 29 34 31 32 37 35 33 34 39 40 41 38 29 28 27 31 34 34 34 34 34 34 35 34 33 33 34 36 37 37 38 38 34 33 32 30 30 29 29 27
34 38 34 32 32 35 33 39 39 41 41 39 40 40 38 30 28 31 33 33 34 34 33 32 32 31 32 34 34 34 34 33 33 32 32 32 32 32 32 31 31 29 27 26
35 34 33 31 38 40 41 41 39 36 36 36 35 33 30 32 32 32 32 32 32 32 33 32 32 32 32 32 32 32 32 31 30 30 31 31 29 30 30 30 30 29 29 28
35 33 31 30 35 37 38 38 38 36 36 36 35 35 35 34 34 34 34 35 34 34 34 33 32 32 31 31 29 30 31 30 30 30 30 28 28 27 29 29 30 31 31 31

GFSCGP_sfc_dewp_021.txt.gz
Dewpoint
30 24 23 23 26 26 24 21 20 22 22 26 31 37 41 43 44 45 46 48 51 54 55 56 57 55 57 55 58 57 55 54 56 51 48 47 47 46 46 45 45 46 46 44
26 24 24 27 28 27 25 22 21 23 23 20 21 34 39 41 42 44 46 47 48 51 51 55 54 54 54 54 57 56 54 56 55 50 48 47 46 45 44 45 44 44 44 43
25 23 28 27 24 24 24 24 24 24 20 23 27 29 37 40 40 42 44 46 46 48 49 53 53 53 53 54 57 56 54 56 54 51 47 46 45 45 44 43 43 37 36 34
25 27 26 26 26 25 23 26 25 25 19 19 21 23 29 36 39 39 41 44 44 45 47 52 53 52 53 54 56 57 55 56 54 50 47 44 46 42 43 43 34 30 34 35
24 28 27 26 22 26 24 28 26 26 26 23 24 21 22 33 37 37 37 40 44 45 44 49 52 52 53 55 56 57 55 55 55 50 48 47 48 46 41 33 30 31 35 35
24 28 27 25 28 27 28 26 28 29 27 22 24 23 22 30 33 37 35 39 41 45 47 46 52 53 53 56 57 58 56 55 55 52 49 47 48 43 34 30 31 33 35 34
25 24 29 30 27 28 28 25 21 19 22 21 29 25 25 26 30 31 31 35 41 44 46 47 51 52 53 56 57 57 55 55 55 51 49 47 45 43 36 30 33 33 33 31
21 21 26 31 27 25 26 24 23 17 20 19 30 25 25 30 31 32 33 34 38 44 45 48 51 53 54 55 56 56 51 51 47 48 46 42 39 35 32 31 32 33 32 31
24 23 33 32 33 28 26 22 26 29 30 27 24 28 21 27 32 35 36 40 43 43 48 50 52 54 55 55 55 53 50 48 45 46 43 39 36 35 33 33 33 33 33 33
28 24 33 33 33 33 26 28 21 27 21 21 22 20 21 27 29 35 38 37 42 48 50 52 53 54 55 55 52 49 47 45 44 42 41 42 39 37 33 33 32 32 33 34
33 25 26 33 27 24 26 24 24 26 26 21 20 21 24 26 28 30 31 38 38 47 51 52 53 54 54 51 47 46 43 41 40 41 41 42 37 36 34 33 33 33 34 34
32 29 25 24 30 31 28 26 24 24 19 26 25 22 26 23 24 27 30 35 40 43 49 52 52 51 47 45 45 45 43 41 40 40 40 38 39 35 33 32 35 35 32 34
34 28 24 24 26 30 28 26 28 29 27 24 22 21 24 25 22 22 30 33 38 44 48 50 50 49 48 45 44 44 44 42 41 43 41 38 35 33 34 37 35 33 33 33
35 29 25 22 24 28 26 27 27 27 25 23 24 21 22 24 24 23 23 29 37 44 46 46 48 48 47 46 45 45 45 45 43 41 39 38 36 35 36 33 33 33 33 32
33 27 25 25 25 29 26 26 25 24 24 23 23 25 25 23 23 23 25 28 38 42 43 42 44 45 46 47 48 47 45 41 42 39 38 36 39 37 35 35 33 34 34 32
34 27 28 29 30 29 26 26 26 26 25 25 24 22 25 27 27 28 28 29 30 33 36 39 40 42 41 43 45 45 43 42 41 38 36 38 38 38 36 35 35 35 34 33
31 30 28 23 28 27 24 26 26 25 26 25 23 24 28 30 30 31 33 33 33 34 34 35 38 42 42 42 44 44 41 41 38 37 37 39 40 36 35 34 34 35 35 37
31 29 27 24 25 18 25 29 27 26 26 26 26 29 32 33 34 33 33 34 34 35 35 34 34 35 40 44 44 44 40 38 37 37 37 37 36 34 34 34 35 36 37 36
37 31 28 25 24 25 25 24 26 24 24 29 30 33 35 35 34 34 36 36 35 33 32 32 32 32 35 40 39 34 33 33 35 35 35 35 35 35 36 36 37 38 37 36
34 33 31 26 23 20 27 28 28 28 24 30 31 33 34 31 28 33 36 32 31 32 32 32 32 32 32 32 33 33 34 33 33 35 34 35 36 37 38 38 38 38 35 31
29 28 27 23 21 24 27 29 25 21 23 32 33 33 32 31 33 34 31 31 32 33 33 33 34 34 34 34 35 34 34 34 35 37 38 39 39 39 39 38 38 35 31 30
30 28 26 25 20 20 31 29 21 27 34 35 34 34 37 36 33 31 30 32 33 33 33 33 33 33 33 34 34 34 34 36 37 39 39 40 40 39 38 36 32 30 29 28
26 31 30 29 28 32 33 29 32 35 34 33 35 39 37 31 29 30 33 33 33 33 33 33 33 34 34 34 34 34 35 37 38 38 38 38 37 35 33 31 30 30 29 27
33 37 32 31 33 34 35 39 37 36 37 40 41 40 32 29 30 32 33 33 32 31 31 31 32 32 32 33 33 33 33 33 32 31 31 31 31 31 31 31 31 30 27 26
35 36 33 33 38 39 39 39 37 36 36 34 32 31 31 32 32 32 31 32 32 32 32 32 32 31 31 31 31 31 30 30 29 30 30 30 28 29 30 29 30 30 29 29
35 33 31 31 38 35 39 37 37 36 35 34 33 33 33 32 32 33 33 33 33 32 32 31 31 30 30 29 30 31 31 30 30 30 29 28 28 28 28 28 28 31 32 31

GFSCGP_sfc_dewp_027.txt.gz
Dewpoint
29 27 26 26 27 24 25 21 20 22 24 33 34 38 45 50 51 52 52 54 52 50 51 54 56 57 57 59 58 58 59 60 59 57 57 58 58 57 57 55 54 53 50 49
28 27 27 26 26 26 25 22 22 23 22 28 28 33 41 47 49 50 51 52 53 52 53 55 55 56 57 58 59 59 59 59 58 57 57 57 56 54 55 51 52 51 49 48
28 25 27 26 25 25 25 24 24 23 22 27 30 27 40 42 47 47 48 50 52 54 54 55 55 56 57 58 59 59 58 58 58 58 53 51 53 49 48 47 48 47 48 46
27 26 26 26 25 25 22 25 25 24 21 19 23 15 27 40 41 42 45 46 49 51 53 54 55 56 57 58 59 59 58 58 57 55 54 53 54 51 48 47 46 44 44 42
25 27 27 25 25 27 24 29 26 25 23 25 24 19 20 34 39 40 42 44 46 49 51 53 55 55 56 57 58 59 58 57 57 54 54 53 53 53 49 45 42 40 40 39
25 27 28 27 26 27 29 27 27 28 27 23 23 21 21 26 34 38 41 43 44 47 49 51 54 56 56 58 59 60 58 57 57 55 53 53 52 50 46 43 40 39 38 38
23 24 27 31 26 28 27 28 23 20 23 22 27 25 25 26 28 33 38 42 44 45 47 49 51 54 55 57 58 58 58 57 57 56 54 53 51 49 48 44 42 41 40 40
22 21 25 30 27 26 27 27 26 18 21 18 28 25 19 27 30 31 31 34 39 43 45 47 49 53 55 56 56 57 57 57 57 56 55 52 51 51 51 48 44 41 41 41
25 21 26 32 32 27 26 26 27 28 30 27 23 24 24 22 26 34 36 36 37 36 42 46 47 50 54 55 56 57 57 57 57 57 57 55 53 52 51 49 46 45 42 39
28 22 31 31 32 31 27 28 26 28 22 19 21 23 21 23 23 28 33 36 37 41 41 45 47 48 53 54 55 57 57 57 57 57 58 56 54 52 52 48 44 43 41 38
28 27 26 31 29 27 27 27 27 27 27 22 20 19 27 26 26 29 29 32 38 40 45 45 47 48 51 54 55 57 56 56 57 57 56 55 53 52 50 47 45 42 39 39
32 31 27 26 28 29 28 28 28 30 23 26 26 22 25 29 28 29 28 29 35 40 41 48 49 51 52 53 54 55 56 56 55 52 54 53 52 50 48 46 44 41 39 38
33 28 25 22 23 29 28 27 28 28 29 26 30 24 24 26 27 28 28 27 29 37 40 47 51 52 53 53 53 53 53 53 51 51 50 49 49 48 47 46 43 41 38 36
35 29 27 21 23 26 28 28 28 29 28 28 27 25 25 26 25 26 29 29 29 40 43 47 50 51 51 51 52 52 51 49 47 47 48 48 47 46 45 43 40 38 38 36
35 28 27 24 22 26 26 26 27 25 28 28 27 25 25 27 28 27 28 36 40 42 43 45 47 49 50 50 50 49 49 48 47 46 46 46 46 44 41 39 38 37 36 35
34 30 28 26 28 27 28 27 27 27 26 26 25 25 28 28 27 29 32 37 37 37 37 39 41 42 43 44 47 48 48 47 46 45 44 44 43 40 39 38 38 37 36 35
34 33 30 25 28 28 28 30 28 28 28 29 27 30 28 28 31 31 35 34 34 34 34 35 37 40 43 44 45 46 46 44 44 43 43 42 40 39 38 37 36 35 35 37
33 33 31 29 28 26 28 29 28 29 28 28 27 28 28 30 33 34 34 34 33 33 33 33 35 36 37 39 39 41 41 41 40 39 39 39 39 37 36 36 37 39 40 41
35 33 29 30 27 26 24 28 28 28 24 28 27 28 31 35 35 34 33 34 34 33 33 34 35 35 36 36 37 37 37 37 37 37 36 36 37 36 38 39 40 41 40 40
33 34 35 27 27 25 31 28 30 27 25 29 30 33 34 35 34 34 33 33 33 34 34 34 35 35 35 35 35 35 35 36 36 37 37 38 38 39 39 40 40 41 40 39
33 32 31 27 32 30 31 28 29 27 28 33 33 35 36 33 34 35 34 33 33 33 33 34 35 34 35 36 36 36 37 37 38 39 39 39 39 40 40 40 39 38 37 37
34 33 33 30 32 29 32 27 29 35 33 35 37 38 38 34 34 33 33 33 33 33 33 33 34 34 35 36 36 36 38 39 39 39 38 37 37 36 35 35 34 33 33 33
34 35 35 34 35 38 33 36 34 34 35 36 38 37 36 34 33 33 32 32 32 32 32 33 34 34 34 33 34 33 33 32 31 31 31 31 31 30 30 31 31 30 31 31
34 34 35 35 35 34 35 35 36 35 36 35 37 37 34 33 33 32 32 31 32 32 32 31 31 29 30 30 31 31 31 31 31 31 30 29 28 28 27 26 26 26 27 28
35 34 34 33 33 39 38 38 37 37 39 37 36 36 34 33 32 31 31 31 32 31 30 29 29 30 31 30 30 29 29 29 27 26 24 23 24 21 21 20 21 22 23 26
36 35 35 34 34 37 36 39 38 37 36 35 34 33 33 33 31 31 31 32 31 30 29 29 30 30 28 26 25 25 24 23 22 21 20 22 22 21 19 18 17 21 22 22